User: anonymous
Location: Unspecified
(0.0000°N, 0.0000°E)
Time: 06:00:34
(UTC+02:00)
Language:

Cosmos 1437 - Orbit

View from above orbital plane
View from above orbital plane
View from above satellite
View from above satellite

Ground track
Ground track

The orbit data is extracted from the following two-line orbital elements,

1 13770U 83003A   14272.76157282  .00014077  00000-0  44677-3 0  6689
2 13770 081.1633 271.4568 0012377 117.6103 296.0901 15.32479999733585
Epoch (UTC): 29 September 2014 18:16:39
Eccentricity: 0.0012377
inclination: 81.1633°
perigee height: 460 km
apogee height: 477 km
right ascension of ascending node: 271.4568°
argument of perigee: 117.6103°
revolutions per day: 15.32479999
mean anomaly at epoch: 296.0901°
orbit number at epoch: 73358

The dashed part of the orbit path shows where the satellite is in the earth's shadow,  

DLR